TimeCST,TemperatureF,Dew PointF,Humidity,Sea Level PressureIn,VisibilityMPH,Wind Direction,Wind SpeedMPH,Gust SpeedMPH,PrecipitationIn,Events,Conditions,WindDirDegrees,DateUTC
12:53 AM,42.1,12.9,31,30.38,10.0,North,5.8,-,N/A,,Clear,360,2013-03-06 06:53:00
1:53 AM,39.0,14.0,36,30.38,10.0,North,6.9,-,N/A,,Clear,10,2013-03-06 07:53:00
2:53 AM,39.9,14.0,35,30.37,10.0,North,4.6,-,N/A,,Clear,360,2013-03-06 08:53:00
3:53 AM,37.9,14.0,38,30.37,10.0,North,5.8,-,N/A,,Clear,10,2013-03-06 09:53:00
4:53 AM,37.0,14.0,39,30.38,10.0,NNE,5.8,-,N/A,,Clear,20,2013-03-06 10:53:00
5:53 AM,37.0,15.1,41,30.40,10.0,NNE,8.1,-,N/A,,Clear,20,2013-03-06 11:53:00
6:53 AM,39.0,15.1,38,30.41,10.0,NNE,12.7,-,N/A,,Clear,30,2013-03-06 12:53:00
7:53 AM,39.9,18.0,41,30.44,10.0,NE,8.1,17.3,N/A,,Clear,50,2013-03-06 13:53:00
8:53 AM,43.0,18.0,37,30.46,10.0,ENE,9.2,-,N/A,,Clear,70,2013-03-06 14:53:00
9:53 AM,45.0,16.0,31,30.46,10.0,ENE,10.4,-,N/A,,Clear,70,2013-03-06 15:53:00
10:53 AM,50.0,14.0,24,30.45,10.0,ENE,8.1,-,N/A,,Clear,60,2013-03-06 16:53:00
11:53 AM,55.0,14.0,20,30.43,10.0,ENE,6.9,-,N/A,,Clear,60,2013-03-06 17:53:00
12:53 PM,57.0,14.0,18,30.38,10.0,Calm,Calm,-,N/A,,Clear,0,2013-03-06 18:53:00
1:53 PM,59.0,12.9,16,30.32,10.0,SSE,4.6,-,N/A,,Clear,150,2013-03-06 19:53:00
2:53 PM,62.1,10.9,13,30.26,10.0,SE,8.1,-,N/A,,Clear,130,2013-03-06 20:53:00
3:53 PM,62.1,10.0,13,30.26,10.0,SE,5.8,-,N/A,,Clear,130,2013-03-06 21:53:00
4:53 PM,62.1,10.9,13,30.24,10.0,South,6.9,-,N/A,,Clear,170,2013-03-06 22:53:00
5:53 PM,60.1,12.0,15,30.24,10.0,SSE,5.8,-,N/A,,Clear,150,2013-03-06 23:53:00
6:53 PM,55.9,12.9,18,30.24,10.0,SE,4.6,-,N/A,,Clear,130,2013-03-07 00:53:00
7:53 PM,54.0,15.1,22,30.23,10.0,ENE,3.5,-,N/A,,Clear,70,2013-03-07 01:53:00
8:53 PM,53.1,15.1,22,30.25,10.0,Calm,Calm,-,N/A,,Clear,0,2013-03-07 02:53:00
9:53 PM,48.0,17.1,29,30.26,10.0,Calm,Calm,-,N/A,,Clear,0,2013-03-07 03:53:00
10:53 PM,46.0,17.1,31,30.24,10.0,Calm,Calm,-,N/A,,Clear,0,2013-03-07 04:53:00
11:53 PM,44.1,19.0,37,30.22,9.0,Calm,Calm,-,N/A,,Clear,0,2013-03-07 05:53:00